RH
7 5 11 12 13 20 18 14 10 8 8 7 6 5 6 6 7 8 8 9 8 10 10 11 18 23 24 22 23 32 41 45 52 51 56 83 96 92 92 91 95 94 81 77 67 56 53 47 44 42 35 35 41 45 49 49 46 44 42 41 40 43 48 52 59 66 69 69 69 65 64 63 62 58 44 27 18 18 18 19 23 22 29 42 40 29 21 22 27 35 46 49 45 41 40 42 42
5 7 10 10 17 20 14 12 10 8 7 7 6 5 7 6 7 8 8 9 9 10 11 19 29 32 32 32 30 32 48 66 73 79 86 93 96 94 92 91 95 95 92 88 69 58 56 48 45 41 37 40 47 48 47 46 42 40 39 42 44 49 54 59 66 71 73 70 68 65 62 61 61 53 33 19 16 17 15 15 17 20 28 33 28 22 21 27 38 50 59 60 57 49 42 42 42
5 10 15 14 17 19 13 10 9 9 8 7 6 6 7 7 8 8 8 9 11 15 19 27 32 38 36 34 37 37 53 73 80 87 93 91 93 94 92 92 95 93 92 86 69 63 59 50 47 42 40 43 50 52 46 44 43 41 42 44 45 48 54 63 72 74 73 70 67 62 58 56 50 37 23 17 16 15 12 13 18 22 27 28 25 21 26 37 50 63 69 71 70 60 49 45 45
8 13 20 19 14 14 11 8 9 8 7 6 7 8 8 8 9 8 10 13 16 21 27 31 36 46 39 37 43 47 61 72 81 88 90 94 95 93 92 90 93 95 89 82 77 77 69 54 49 45 45 48 52 56 54 52 49 47 46 44 42 42 47 58 67 72 72 66 60 52 45 38 30 24 21 17 14 13 13 18 21 24 28 27 23 25 38 50 61 72 76 75 75 70 58 49 47
15 16 19 19 13 11 9 8 9 8 7 7 8 9 8 8 8 8 12 19 23 24 31 32 38 52 50 54 52 55 72 71 83 95 94 97 97 97 95 89 92 96 91 89 91 94 85 65 57 53 49 50 53 54 56 59 57 54 49 44 39 35 39 48 57 64 62 54 46 35 25 21 19 19 18 15 14 16 19 23 25 28 30 25 27 42 57 63 69 76 77 72 69 65 57 52 52
20 19 17 18 14 11 10 10 8 8 9 8 8 8 8 8 8 10 17 24 28 29 31 31 35 47 57 71 74 82 91 81 90 100 96 94 97 102 99 97 99 98 96 98 97 98 93 76 71 70 64 64 68 67 63 67 65 59 51 41 35 31 31 36 44 49 46 37 29 21 18 17 16 20 24 23 21 23 24 24 28 30 28 33 47 65 72 70 72 77 74 65 60 57 56 57 61
21 17 14 13 12 12 10 9 8 8 9 9 9 8 7 8 9 12 20 27 30 31 32 33 33 41 54 64 77 96 100 94 100 100 96 93 94 98 95 98 100 94 90 92 84 77 81 77 75 75 75 78 83 86 85 88 85 78 67 51 37 28 27 29 30 31 28 23 20 19 19 16 19 34 47 50 41 30 27 28 30 32 38 53 67 74 75 73 75 77 72 63 60 60 59 62 68
20 15 13 11 9 10 10 9 8 9 8 8 8 8 9 9 11 13 20 26 28 29 32 35 29 38 53 53 65 90 99 99 101 98 96 93 91 89 82 79 77 76 77 78 67 56 63 71 74 70 68 69 67 69 75 84 89 90 88 79 61 37 25 22 21 21 19 19 21 20 18 23 38 58 67 73 64 38 28 31 32 42 56 66 72 73 74 76 78 77 72 66 64 64 63 66 71
17 14 12 11 9 9 9 8 8 8 7 8 8 10 11 11 13 16 22 27 30 29 31 31 27 42 55 55 65 82 96 99 97 97 96 93 92 88 83 78 69 71 77 75 67 64 66 69 73 69 65 67 62 57 56 60 65 71 77 84 78 56 35 21 16 18 17 18 18 18 30 48 62 73 74 78 71 43 32 36 43 58 66 66 69 70 71 74 77 77 74 69 68 69 66 67 72
13 12 10 10 9 9 9 8 8 8 7 8 10 13 14 16 17 20 25 27 29 29 33 31 28 43 51 54 66 78 94 101 97 97 97 91 88 89 93 93 84 84 84 76 72 74 75 74 75 71 70 69 63 59 56 53 52 55 58 62 62 57 48 32 18 15 15 16 16 24 52 70 71 73 72 75 66 46 40 45 57 65 65 65 66 66 69 74 75 75 75 73 72 72 68 67 70
11 10 10 10 9 10 8 8 8 8 8 9 14 18 20 24 22 22 25 27 28 29 35 33 31 42 49 56 70 86 97 99 98 99 99 92 88 90 94 96 93 92 86 78 78 78 78 77 74 74 73 65 54 51 52 52 51 52 56 55 48 42 44 38 20 12 15 17 25 42 65 71 70 71 66 69 60 44 46 55 64 65 63 64 63 68 72 74 75 74 74 74 75 75 71 68 67
11 8 9 9 9 9 8 8 8 8 9 12 18 20 22 26 24 22 23 25 26 30 39 40 38 41 47 57 72 87 92 97 101 99 99 97 94 92 94 92 89 93 90 84 83 82 81 78 76 77 69 56 47 43 41 44 49 50 55 59 50 33 26 30 24 14 18 28 46 61 61 57 60 62 55 58 52 39 47 58 66 67 65 63 64 71 72 74 76 74 73 74 75 76 73 71 70
10 7 8 9 9 8 7 8 8 9 11 14 21 23 24 25 25 24 21 25 26 30 44 51 43 38 48 61 74 81 82 93 100 100 100 99 99 98 98 95 88 88 88 88 87 85 83 80 77 73 63 50 44 42 36 34 37 44 51 57 56 41 23 28 37 29 31 45 59 58 45 41 45 44 42 48 46 40 48 58 64 67 66 64 67 70 72 75 77 77 75 75 74 75 74 73 73
10 8 8 9 9 7 7 8 7 10 11 16 24 29 29 28 31 30 25 29 38 41 48 56 46 37 47 55 67 78 77 86 93 97 100 97 99 99 100 99 94 88 83 82 82 84 84 82 77 71 68 59 49 43 41 38 32 34 41 46 49 48 35 32 47 50 53 62 58 48 42 42 40 37 39 44 44 43 49 58 64 69 69 66 67 70 73 74 75 79 78 77 75 73 74 72 73
11 9 8 8 8 7 8 7 8 9 10 16 26 30 29 36 38 36 36 34 46 57 51 54 52 45 50 51 63 79 77 81 84 88 93 90 90 93 97 99 97 90 82 77 76 80 80 81 81 78 75 68 62 52 47 48 39 33 32 32 36 47 46 36 51 64 69 75 64 53 54 48 41 39 39 46 52 50 53 63 71 72 69 65 68 72 73 73 74 78 78 77 75 72 71 72 73
11 9 7 8 8 8 8 7 8 9 11 13 22 24 23 38 42 43 50 41 45 59 54 56 63 61 65 69 76 83 81 85 84 85 88 82 81 83 85 88 90 86 80 75 72 76 77 79 82 84 84 77 73 64 54 47 38 36 30 26 27 39 50 40 46 64 74 82 74 61 62 58 57 53 44 54 63 60 65 72 75 69 65 67 70 72 72 71 72 76 77 77 74 72 70 71 73
11 9 8 9 8 9 8 8 8 8 11 10 16 18 18 33 41 46 50 43 43 52 59 66 72 73 77 82 86 86 83 85 81 77 72 65 67 70 69 66 67 72 78 79 71 69 73 75 75 78 85 86 84 76 67 54 39 37 40 38 30 31 46 45 38 55 76 85 76 64 65 65 65 60 50 59 63 59 65 67 66 64 65 70 70 70 72 69 71 75 75 74 73 71 70 71 72
10 9 9 9 8 9 8 8 8 8 10 11 16 18 19 26 34 41 38 37 41 45 56 62 66 72 77 81 83 82 71 63 58 50 45 41 41 47 51 44 40 47 61 78 77 68 67 68 68 69 72 79 86 83 78 69 47 37 52 62 51 32 38 51 40 43 67 78 76 69 65 64 59 54 49 56 59 53 55 56 58 63 67 70 69 69 71 68 68 71 69 70 72 71 73 74 72
9 8 9 10 9 9 8 8 8 8 10 12 16 19 20 22 27 34 29 27 30 34 44 48 53 59 64 70 69 64 51 41 38 32 29 28 27 30 35 33 33 35 39 59 66 59 57 57 56 60 65 72 81 83 81 78 56 38 48 65 67 48 41 58 48 39 57 69 77 73 62 63 62 55 50 52 58 53 48 54 58 64 69 68 69 69 70 67 63 64 64 66 69 73 84 88 83
9 8 9 10 9 9 9 9 9 9 10 10 14 16 17 23 28 31 26 24 25 29 35 36 41 47 52 61 59 49 36 30 30 26 25 26 28 35 42 43 40 37 34 42 53 55 52 49 49 51 59 67 77 82 78 76 69 57 51 54 68 69 62 62 51 43 54 66 77 79 64 59 66 61 55 55 56 53 49 56 62 63 68 68 68 68 67 63 58 59 60 62 67 80 93 97 96
8 8 9 9 9 10 10 10 11 10 10 9 11 14 19 28 31 28 23 23 25 34 44 43 45 50 50 55 56 43 30 27 27 27 29 28 30 37 47 49 41 35 35 35 47 64 59 51 53 52 58 64 71 79 80 78 75 72 64 59 66 74 74 63 54 49 53 66 71 81 80 62 64 63 56 57 55 58 58 59 64 62 65 67 65 67 65 58 59 60 58 63 72 86 94 92 97
8 9 9 9 9 10 11 11 11 11 10 10 11 15 23 31 34 31 24 24 34 46 56 55 55 57 53 55 56 43 29 28 28 28 28 28 27 30 34 35 37 40 40 32 39 70 80 68 59 55 62 70 72 74 81 86 82 77 73 73 75 76 76 66 61 56 56 71 64 71 92 72 62 68 59 56 58 62 60 59 65 64 66 65 64 73 71 62 67 69 64 69 74 80 86 86 91
9 9 10 10 10 10 11 11 11 12 10 10 13 19 25 27 35 42 40 45 55 60 60 57 56 54 49 50 50 38 28 26 25 26 26 25 23 25 28 31 42 50 46 34 32 64 91 89 76 65 68 79 82 82 85 90 90 88 80 78 83 82 81 74 70 63 56 66 63 64 91 84 67 71 62 55 62 61 58 68 77 74 71 66 67 74 71 65 68 68 67 70 71 72 78 80 83
10 9 11 11 12 12 12 12 12 12 10 12 17 22 22 22 35 49 55 63 65 63 59 55 53 52 50 47 46 40 32 29 26 27 32 33 29 28 34 37 44 47 45 42 40 58 81 88 85 75 78 91 93 94 94 92 89 90 88 83 89 89 83 83 78 72 57 51 60 62 74 88 81 74 61 56 63 60 65 86 88 76 72 67 66 69 65 63 64 64 70 74 75 74 73 78 82
11 10 12 12 14 14 12 13 13 12 13 16 20 22 24 29 41 50 59 65 62 58 56 53 51 50 50 50 52 49 43 42 41 43 51 54 46 35 38 44 47 45 44 48 50 58 72 84 90 81 80 92 96 96 97 95 89 86 90 88 94 95 84 86 82 79 69 51 60 64 60 77 90 86 64 60 70 66 75 91 87 75 70 66 62 65 63 61 66 70 76 79 78 77 72 77 80
13 13 13 14 15 14 13 14 14 16 16 18 23 28 35 42 45 51 61 62 57 54 52 51 49 46 48 49 53 54 48 46 50 56 64 67 55 37 41 52 53 50 45 45 47 53 66 78 88 84 76 81 88 93 93 95 95 88 90 92 96 100 88 85 81 77 74 61 60 64 65 65 77 94 73 62 77 79 84 81 76 77 69 63 61 63 64 62 70 74 77 76 73 75 74 74 77
15 14 15 15 15 15 15 15 17 20 21 21 24 31 38 41 37 45 60 59 52 51 49 48 45 44 47 48 51 54 53 51 51 53 57 64 60 50 54 64 67 62 54 51 47 45 55 67 75 76 75 80 84 89 89 89 96 94 93 96 98 99 91 89 88 84 79 74 58 46 62 61 58 91 83 59 68 72 76 67 63 70 61 58 62 62 64 66 72 76 77 73 68 74 75 73 75
16 15 15 15 15 17 16 14 18 19 22 23 23 28 32 31 31 43 58 54 47 46 45 44 42 43 46 47 48 51 57 60 59 56 57 65 70 66 61 69 83 79 68 63 51 39 41 55 65 65 69 80 82 85 89 85 88 95 94 96 100 98 94 96 95 91 87 84 62 32 49 61 59 93 89 64 70 62 59 69 65 61 56 56 62 65 66 70 73 73 69 62 62 69 72 76 78
16 15 14 15 15 18 18 15 17 16 21 24 22 25 25 28 39 50 55 49 44 42 41 42 41 43 44 45 48 52 58 62 64 66 70 73 73 71 61 61 76 79 73 61 44 35 32 39 48 50 60 77 77 73 82 86 85 91 96 96 98 99 96 97 91 87 92 90 72 44 45 60 71 100 88 64 83 72 55 75 74 59 58 57 58 65 65 69 73 69 64 55 53 62 69 75 80
16 14 13 15 15 19 20 17 17 16 22 25 21 25 29 38 49 52 50 45 41 38 37 40 41 43 43 43 47 54 58 59 62 67 73 76 72 70 63 56 57 62 64 48 31 30 28 28 30 31 42 64 74 67 68 82 86 83 92 95 94 98 97 97 94 91 98 94 82 64 49 52 69 96 91 68 79 78 65 78 79 63 60 57 54 58 60 68 74 69 68 60 54 65 72 76 80
14 14 14 14 16 21 22 19 18 17 21 23 19 24 34 44 49 48 46 42 37 35 36 39 40 43 46 46 47 51 56 58 61 65 70 73 73 71 66 56 48 46 45 35 27 27 25 24 24 24 24 34 56 68 63 70 85 84 86 90 89 95 98 98 100 99 101 95 86 74 56 50 60 78 90 81 70 71 79 83 77 69 61 56 54 55 62 73 74 70 71 67 63 73 78 78 77
14 17 18 15 16 21 22 20 20 19 18 19 18 23 32 41 45 47 45 39 36 37 38 40 41 45 47 48 47 49 55 57 59 65 70 71 73 74 67 56 46 39 35 30 28 26 25 24 22 22 22 20 30 54 68 67 75 86 87 87 86 91 98 100 100 98 100 99 91 81 68 59 59 65 76 82 69 68 90 84 71 73 63 58 58 55 65 74 74 72 71 70 71 74 79 79 72
15 16 18 18 17 19 21 21 20 20 18 17 19 23 32 39 44 46 43 39 37 37 39 41 42 46 48 48 47 48 53 58 60 67 74 73 73 73 65 54 43 36 33 30 28 27 26 25 22 20 21 23 21 35 68 77 71 78 86 87 86 87 91 97 100 96 96 101 97 88 77 64 61 63 64 73 71 70 85 77 69 74 61 57 59 55 66 75 74 71 66 70 73 69 76 82 74
18 17 17 18 18 17 20 22 20 19 19 18 19 21 29 37 42 45 42 39 38 38 40 43 44 49 50 48 48 49 52 58 62 68 75 74 72 69 60 51 41 34 32 30 29 29 29 26 25 22 19 24 24 26 53 78 81 82 87 88 87 87 87 91 98 95 91 98 101 93 79 66 63 65 60 64 71 70 67 62 69 77 63 56 56 56 68 76 75 71 64 67 71 70 77 79 75
18 19 18 19 19 18 19 22 22 20 18 19 20 21 27 35 41 42 40 39 39 39 42 45 49 53 52 50 49 50 53 58 64 70 73 72 70 64 57 52 45 36 32 32 32 33 37 39 36 34 32 30 31 37 51 71 85 91 92 90 89 90 88 90 98 97 93 96 100 98 83 67 66 67 60 55 64 70 62 62 76 77 65 57 53 57 68 76 77 71 64 62 65 71 75 70 70
17 17 18 18 18 19 19 21 22 21 19 19 20 21 27 37 41 39 40 40 40 43 44 45 49 51 52 53 53 53 54 58 66 71 71 69 66 60 56 53 50 42 35 35 39 41 46 53 54 55 57 55 48 52 64 72 85 95 91 86 89 91 88 93 99 96 97 98 99 102 88 72 69 68 61 53 55 64 66 77 86 72 61 59 54 56 64 76 75 66 67 63 58 61 64 65 67
17 16 17 17 17 19 19 21 23 21 21 21 22 22 26 36 40 38 40 42 44 46 45 44 46 47 49 50 53 56 57 59 66 71 70 68 65 61 58 52 49 49 44 41 42 48 56 61 67 70 74 78 71 62 69 76 84 95 94 89 93 90 85 95 98 91 96 99 97 97 86 74 74 70 62 54 50 57 64 74 76 65 60 60 57 53 59 74 74 70 74 65 58 60 58 62 65
17 16 17 17 18 19 20 23 24 23 23 24 25 24 27 35 39 39 41 42 45 47 45 44 44 46 48 50 54 56 56 59 66 70 68 68 65 62 60 55 50 54 56 51 45 48 61 66 69 75 78 83 82 72 73 78 80 90 98 96 95 86 78 88 95 90 93 99 97 92 81 72 71 71 65 55 53 59 67 68 62 62 63 59 58 56 57 64 63 70 76 66 69 71 60 58 58
17 17 18 18 18 20 22 25 25 24 25 26 26 26 31 37 39 40 42 42 44 46 46 46 47 48 49 53 59 60 60 63 66 67 66 66 64 60 60 58 56 59 63 59 53 55 65 71 70 75 80 81 82 79 74 74 75 83 96 96 93 90 80 83 94 94 94 100 97 88 84 74 57 54 56 55 57 57 64 70 64 65 64 59 64 62 57 55 51 61 71 70 79 79 64 56 55
17 18 19 19 19 20 22 26 27 24 25 27 25 28 35 40 42 43 42 42 46 50 51 50 48 47 48 53 60 62 64 68 67 64 65 64 61 59 60 61 60 62 65 61 59 63 68 73 73 75 81 80 79 83 77 73 75 77 90 95 92 93 86 84 96 100 96 99 98 90 91 81 56 47 45 44 50 48 53 67 69 70 66 63 72 67 59 60 56 58 69 75 79 83 73 58 57
17 18 19 18 19 20 21 25 27 25 26 27 26 33 37 38 42 44 43 45 50 54 54 54 51 48 51 56 60 62 64 69 68 62 63 63 59 60 60 60 59 60 65 67 66 68 70 73 76 78 82 81 79 83 81 80 81 78 87 98 96 92 91 90 97 101 97 95 96 89 84 76 62 59 52 38 39 45 51 61 68 72 68 65 70 67 61 66 69 61 68 79 76 82 81 63 61
17 19 20 20 20 20 21 24 25 26 29 29 29 37 38 34 37 40 42 48 53 54 52 52 54 53 55 57 60 61 61 67 67 61 62 62 59 60 60 59 58 60 65 70 70 70 72 73 77 80 80 79 80 84 85 82 83 82 89 100 99 95 96 98 98 99 98 96 92 85 76 68 65 70 69 52 39 41 52 63 70 73 72 68 66 69 70 70 76 70 69 79 74 78 84 69 66
20 21 21 21 21 20 21 23 25 27 30 32 31 33 33 33 35 36 41 47 52 56 54 55 58 55 54 55 56 58 60 64 64 62 63 61 59 59 59 58 58 62 64 67 73 76 77 75 78 82 78 76 80 85 87 83 80 81 89 96 97 97 98 99 99 96 98 100 95 89 81 70 71 79 72 53 38 36 46 61 73 74 76 77 67 71 85 80 76 73 69 77 74 74 83 74 68
21 22 22 22 21 22 21 22 25 24 28 34 32 31 33 33 34 34 40 46 51 58 57 58 61 56 53 56 55 55 61 63 61 62 62 60 61 60 58 59 60 64 64 66 75 78 80 80 78 79 76 75 81 86 88 87 84 83 87 91 93 97 97 97 100 98 96 99 98 96 86 66 66 77 62 43 38 36 38 50 69 77 78 81 70 66 81 82 76 76 75 80 77 74 82 80 73
21 23 24 23 22 22 21 20 21 22 29 32 28 34 40 34 35 38 39 42 47 55 54 53 56 54 53 56 56 55 59 60 57 59 61 60 62 61 59 61 63 67 68 70 74 75 78 81 77 76 75 73 79 86 89 89 89 87 86 88 91 96 97 94 97 101 96 93 95 100 95 76 70 76 67 55 49 43 45 53 66 78 77 77 80 77 79 78 77 81 80 82 83 81 81 80 79
23 25 25 25 24 22 22 21 20 24 33 31 28 40 43 32 35 42 42 41 40 43 45 46 49 49 51 55 55 55 56 56 56 59 61 61 62 61 62 63 63 66 69 70 71 72 78 79 76 76 73 72 77 84 88 89 89 90 89 89 90 92 94 91 92 100 99 91 93 99 101 94 81 68 57 54 54 56 68 73 71 77 75 68 82 94 85 73 74 76 73 74 77 79 80 80 83
26 28 24 24 25 23 24 23 23 28 32 33 37 47 47 37 36 40 45 47 41 39 41 42 45 47 51 55 53 53 51 49 55 57 56 60 62 61 62 63 61 62 66 68 70 74 79 78 77 76 73 75 79 80 84 87 88 90 91 92 92 91 93 93 88 93 100 96 92 93 98 98 80 56 43 47 59 68 78 80 73 77 74 62 76 97 88 72 71 71 69 70 70 71 78 82 84
26 25 22 25 26 26 27 27 31 33 33 38 42 45 48 44 40 41 46 48 42 42 43 41 45 49 52 53 50 48 46 45 50 50 50 56 60 61 63 62 60 62 66 70 75 80 80 78 78 78 75 78 82 82 82 84 87 89 91 92 94 93 91 94 90 87 96 102 94 88 92 94 81 62 51 55 67 72 74 75 71 73 73 64 72 90 91 84 80 74 70 71 71 72 74 75 78
21 19 21 26 25 26 28 28 31 32 34 41 42 45 48 43 40 42 44 43 39 42 43 41 45 50 53 55 51 47 45 45 47 47 50 56 59 62 63 61 60 63 68 73 80 82 80 78 79 78 76 79 85 87 84 83 86 89 91 91 93 94 90 92 95 88 88 98 99 95 93 93 90 79 65 65 72 72 71 75 73 70 68 65 71 83 87 86 82 75 72 71 71 73 73 72 75
19 19 23 27 26 29 31 28 27 29 35 40 42 46 45 39 42 43 39 39 41 44 44 42 46 52 54 53 50 46 45 46 46 46 50 56 61 64 63 61 62 65 70 76 80 81 78 76 76 76 78 84 89 92 89 84 84 87 90 90 91 94 93 91 96 95 87 86 95 101 98 93 93 91 83 77 75 71 69 73 74 70 67 68 78 83 76 72 72 70 70 72 71 72 74 74 75
21 21 22 25 27 31 33 30 28 29 31 37 45 47 40 42 49 43 37 41 42 42 42 44 49 52 48 45 42 41 42 44 43 45 52 60 63 64 63 63 65 68 73 79 80 78 75 73 74 77 81 87 90 94 94 89 86 87 89 91 91 93 95 93 94 98 92 82 85 94 98 98 94 93 94 83 68 62 63 65 67 71 75 78 86 85 69 59 62 65 64 63 66 70 71 73 73
23 19 20 26 27 28 33 39 43 40 32 32 41 41 33 39 44 38 38 41 38 38 40 44 49 48 43 40 38 37 37 40 42 45 53 62 64 62 63 64 66 70 75 80 80 76 72 72 77 81 83 86 89 93 95 93 91 89 88 91 93 91 94 95 93 96 96 92 90 88 88 95 94 90 92 81 62 56 56 57 62 69 76 78 87 89 69 51 50 56 60 57 59 65 66 68 71
25 19 21 26 25 26 33 43 51 50 40 34 36 33 27 32 37 38 40 40 36 36 38 40 42 43 44 42 39 36 34 38 41 45 53 61 62 60 61 63 65 71 75 79 79 73 70 74 79 82 83 86 91 91 91 91 90 89 90 93 94 93 92 94 93 92 92 94 98 92 82 83 86 85 84 76 64 57 53 54 57 64 70 71 81 90 74 55 49 51 60 64 64 67 66 66 68
25 22 22 25 27 29 31 35 38 37 35 34 36 33 27 30 38 42 42 42 39 35 35 38 38 40 44 42 39 35 34 39 44 49 55 59 60 60 62 64 65 69 74 78 77 70 69 75 79 82 85 88 91 90 89 90 90 91 95 96 96 96 93 93 94 92 91 91 95 97 89 80 79 80 80 75 68 62 59 59 57 62 69 66 74 90 84 68 61 60 65 71 72 72 70 70 70
24 22 21 24 29 29 26 28 30 30 31 32 36 36 30 30 38 43 42 43 43 37 34 34 34 36 36 34 34 35 38 45 49 52 54 56 58 59 63 65 66 69 73 76 74 68 70 76 77 80 84 87 89 91 94 95 94 95 99 98 98 99 97 97 97 95 93 92 92 96 95 85 76 75 77 76 75 72 71 70 63 62 68 66 69 86 90 76 68 67 69 72 75 72 69 74 76
27 24 21 22 25 24 24 27 28 30 32 31 33 33 28 28 33 36 39 40 40 39 35 32 31 31 31 30 32 35 40 46 48 49 52 56 59 61 65 66 66 67 70 73 71 66 70 76 76 77 82 86 90 95 98 99 98 98 99 99 99 100 99 98 99 98 94 93 94 95 94 88 79 76 75 74 75 76 77 79 71 61 65 70 68 76 88 87 81 76 71 73 75 69 65 71 76
31 29 26 25 25 26 27 27 26 28 30 30 32 29 25 29 32 32 36 36 34 35 35 32 30 29 30 33 34 36 42 48 50 50 52 56 60 63 65 65 66 66 68 71 68 65 70 75 76 76 81 88 92 95 97 98 98 99 100 100 99 98 98 97 97 98 96 94 95 96 94 90 84 78 75 74 76 78 76 78 78 69 66 70 70 73 82 88 91 90 83 76 74 70 69 75 79
33 30 29 27 27 28 31 31 28 29 31 32 35 34 29 31 32 32 36 34 30 31 33 32 30 29 31 34 36 40 44 49 53 54 54 56 60 63 64 64 64 63 65 67 64 65 70 74 76 77 80 87 91 91 93 95 96 98 99 99 97 96 96 97 96 96 97 96 96 97 97 95 89 83 78 75 78 85 81 74 75 76 70 67 68 71 74 75 81 89 91 85 80 76 76 81 83
Wind_Speed
6 7 9 10 10 8 8 10 6 5 5 6 4 2 5 3 3 2 3 2 2 1 4 5 4 3 4 2 4 8 12 9 5 2 1 4 5 7 7 10 12 14 16 16 18 18 16 14 12 12 12 13 15 16 15 14 13 12 11 10 10 10 10 11 12 13 13 13 13 12 12 13 13 13 12 12 13 14 14 14 14 14 15 16 15 15 16 18 18 18 18 18 19 18 17 16 15
8 9 10 11 11 7 8 8 6 5 6 6 4 2 5 4 3 3 1 2 4 5 3 0 3 4 2 3 5 7 12 12 9 6 7 6 6 7 7 10 12 13 14 15 17 17 16 15 13 12 12 14 16 16 15 14 12 11 10 9 9 9 10 11 12 13 12 12 11 11 11 12 13 12 12 13 14 14 13 15 15 15 16 15 16 17 19 19 18 17 17 18 18 18 17 16 15
10 11 10 10 11 6 5 6 6 4 6 5 5 3 3 4 3 1 3 6 6 2 3 5 5 3 3 5 5 6 9 11 10 8 8 5 5 6 7 9 10 11 12 14 16 17 15 14 14 13 12 13 15 16 15 14 12 10 9 8 8 8 9 10 11 12 11 11 10 10 10 11 12 12 12 13 13 14 14 16 16 16 16 16 17 19 19 18 16 16 16 17 17 16 16 16 15
12 13 11 9 9 6 5 6 5 4 5 3 4 5 3 2 2 2 5 5 2 6 6 7 6 3 4 7 7 9 7 8 11 9 4 2 2 5 7 9 11 10 11 12 14 15 13 13 13 13 13 13 14 14 14 12 11 10 9 8 6 6 7 9 10 11 11 10 10 10 10 10 11 11 12 13 14 15 16 17 18 17 17 18 19 19 18 16 15 16 16 16 15 15 15 15 15
12 12 12 8 6 4 4 4 3 5 2 1 3 6 3 1 1 2 4 3 5 7 7 8 7 6 10 9 6 6 5 4 9 11 5 3 3 4 6 8 9 8 9 10 11 10 9 12 11 11 11 11 12 12 13 12 11 10 9 7 5 5 5 7 9 10 10 9 9 9 9 10 11 11 12 13 14 16 17 18 18 18 19 20 20 18 16 15 15 15 16 16 15 15 15 15 14
10 9 10 6 3 2 4 3 4 4 3 3 1 6 3 1 2 2 4 7 8 7 6 8 9 9 11 12 11 9 6 3 7 12 8 5 5 4 5 9 8 7 9 8 9 10 10 12 12 10 9 9 9 8 9 8 8 8 8 7 4 4 4 6 7 8 9 8 9 9 9 10 11 12 13 14 15 16 17 18 18 19 20 20 19 17 16 15 15 15 16 16 16 16 15 14 14
9 8 9 6 3 4 5 3 3 2 5 4 4 4 2 2 2 3 8 10 9 7 6 9 11 9 8 9 11 11 9 8 8 10 10 6 6 6 4 6 7 7 7 10 11 13 12 8 8 9 8 7 7 6 7 5 4 4 4 5 3 3 3 4 5 6 7 7 8 8 9 10 11 12 12 13 14 15 17 19 20 21 20 20 18 16 15 15 15 16 16 16 16 16 15 14 13
9 7 7 6 4 4 5 2 1 2 5 2 3 3 3 2 2 6 9 9 8 8 9 10 11 8 5 7 8 9 11 12 8 9 11 9 10 9 9 7 9 13 10 11 10 7 6 6 6 7 6 4 4 3 4 5 4 3 1 1 1 1 2 2 3 4 5 6 8 9 10 11 12 12 12 12 13 15 17 19 21 20 20 19 18 16 15 15 16 16 16 15 15 15 15 14 14
7 5 6 5 3 4 3 3 3 3 4 3 3 3 3 2 5 8 9 9 9 9 8 7 10 9 7 10 11 8 11 12 8 10 13 12 13 11 9 8 7 10 9 7 6 6 6 6 5 6 5 4 4 4 4 5 5 5 4 2 1 2 2 2 2 3 5 6 8 10 11 11 12 12 12 11 12 15 18 20 20 20 19 19 17 16 16 16 15 15 14 14 14 14 14 14 14
7 5 5 4 4 5 4 3 4 4 5 5 5 5 4 5 7 9 11 10 9 9 8 7 11 11 8 10 10 8 10 10 9 13 14 11 11 12 10 11 10 9 7 6 6 5 7 7 5 6 5 4 4 5 5 4 4 6 6 3 2 3 5 5 4 4 6 8 10 12 11 10 11 11 12 11 12 16 19 19 19 19 19 18 17 16 17 16 15 14 14 14 13 13 13 13 14
7 5 4 4 5 4 4 5 5 5 6 6 7 7 5 6 8 11 12 10 9 10 9 7 12 13 10 10 9 8 10 10 13 16 14 10 10 11 11 12 12 10 8 7 6 6 6 7 6 5 4 2 2 3 5 6 4 5 6 4 2 2 5 7 7 6 8 9 11 12 10 9 10 11 12 12 14 18 18 18 18 18 18 18 18 18 17 16 15 15 14 14 13 12 12 13 13
5 6 5 5 4 3 5 6 7 8 8 7 8 8 5 6 9 10 11 10 10 10 9 6 8 11 9 9 8 9 13 13 15 15 11 9 11 11 11 13 13 10 9 8 7 5 4 4 5 5 3 0 2 1 4 7 8 7 7 5 3 1 5 8 9 8 8 10 11 10 9 10 11 12 13 13 16 19 18 18 18 18 17 18 19 18 17 16 15 15 14 13 12 11 11 11 12
4 5 6 3 3 4 7 6 8 8 8 7 8 7 5 7 8 7 10 9 8 8 9 8 5 8 7 8 9 11 15 15 13 13 9 9 11 12 13 14 13 11 9 8 6 4 3 3 2 2 2 1 4 2 2 8 10 9 8 6 5 3 4 7 9 9 8 9 9 8 9 10 11 12 14 15 17 19 17 18 18 17 17 18 19 18 17 16 15 15 14 13 12 11 11 11 11
3 4 3 4 3 4 7 6 7 7 7 8 7 7 7 8 7 6 7 8 9 7 6 8 5 9 7 5 7 11 13 13 11 10 10 11 12 12 13 13 12 12 11 9 7 5 4 2 1 1 2 2 4 4 3 6 8 10 9 10 11 8 5 6 8 9 8 8 7 8 9 10 11 13 16 17 19 19 17 17 18 17 17 18 19 18 17 16 15 14 13 13 12 11 10 11 11
2 3 2 5 5 5 4 4 8 7 7 8 7 7 10 9 6 6 7 7 9 8 3 7 8 6 4 3 5 10 10 10 11 10 12 15 15 15 14 12 13 13 11 9 7 7 5 3 1 2 2 2 4 5 4 4 5 9 12 14 19 16 8 7 9 10 9 8 8 9 10 11 12 14 17 18 19 19 18 17 18 18 18 18 18 17 16 16 14 12 12 12 12 11 10 11 11
2 4 4 5 6 6 4 4 7 7 8 8 7 6 10 10 8 8 8 7 10 9 7 9 11 8 10 10 9 10 10 10 10 10 12 14 16 17 16 14 14 13 12 9 7 7 6 4 1 2 3 4 6 6 8 8 4 8 11 15 22 19 11 9 10 12 11 9 9 10 11 11 12 14 17 17 18 19 18 18 18 18 18 18 18 16 15 16 14 11 11 12 11 11 11 11 11
3 5 4 5 5 6 5 4 5 7 9 9 7 4 9 9 9 10 8 9 11 11 13 12 13 13 16 14 11 11 12 12 10 10 11 13 15 16 17 16 14 13 12 10 10 9 7 5 4 2 1 5 8 10 12 12 8 11 12 12 19 18 13 12 12 14 14 12 11 11 12 12 13 15 16 16 17 19 19 19 19 19 18 17 17 16 15 15 14 11 11 11 11 10 10 11 11
5 5 4 4 5 6 5 5 5 8 9 9 7 5 8 9 8 8 7 10 11 12 13 14 15 15 15 14 13 14 13 13 11 11 12 13 15 15 16 15 14 13 11 9 9 9 9 8 7 8 6 3 7 11 13 14 12 14 13 11 15 16 14 15 15 15 17 16 14 14 14 14 14 16 17 17 17 19 20 20 19 19 18 17 17 16 14 14 13 11 10 11 10 10 10 10 10
3 3 4 4 6 7 7 8 7 7 9 9 8 7 8 8 7 5 5 9 9 11 11 12 15 15 14 14 14 14 13 12 12 11 12 13 14 15 15 14 13 12 10 8 6 7 8 8 8 10 11 8 5 9 12 13 15 17 16 12 14 16 17 18 18 17 19 18 16 16 16 16 16 16 17 19 19 19 20 20 20 19 18 17 16 14 13 13 13 11 10 10 9 10 10 9 8
2 2 4 7 9 9 9 9 8 7 8 9 9 8 9 7 5 6 8 10 9 9 9 9 13 13 13 14 14 14 13 13 13 13 13 14 15 16 16 15 14 13 12 9 6 6 6 7 8 9 11 11 8 8 10 13 16 19 19 16 15 18 19 21 20 20 21 21 20 18 18 18 18 17 18 20 20 19 20 19 19 19 18 16 15 14 12 12 12 10 9 8 8 9 8 7 7
2 1 5 9 8 10 9 9 9 6 6 8 9 8 9 8 6 8 9 9 7 8 8 9 12 13 13 14 15 14 14 15 16 16 17 18 19 19 18 17 16 15 12 10 8 7 7 8 8 9 10 11 10 10 11 13 16 18 20 19 17 18 19 21 21 21 23 24 24 21 19 20 20 19 19 20 20 19 20 19 19 20 18 17 15 13 11 11 11 9 8 7 7 7 7 8 7
3 4 9 8 5 8 9 9 8 5 5 7 9 8 9 10 7 5 5 4 7 9 10 12 13 13 14 14 14 15 16 18 19 20 21 21 21 21 20 19 18 16 13 11 9 8 8 9 10 10 10 10 12 12 12 13 16 17 19 20 20 21 21 22 22 22 23 25 25 23 20 21 21 20 21 22 21 21 21 20 20 20 18 17 16 13 11 11 10 7 6 6 5 5 6 8 8
2 7 8 6 5 7 8 8 7 4 5 6 7 9 10 11 9 9 9 11 12 11 11 13 14 13 13 14 15 17 18 20 21 22 22 22 22 22 21 20 19 17 14 12 10 8 8 9 9 11 10 8 10 12 12 12 14 18 20 22 23 24 24 24 25 25 25 24 24 25 22 21 22 21 22 24 22 22 22 20 20 20 19 18 17 14 12 11 9 8 6 6 5 5 6 7 7
3 8 8 6 5 6 7 6 6 4 6 7 8 10 10 11 9 11 15 15 13 13 13 13 14 13 13 15 17 18 20 21 22 22 22 21 21 21 20 20 18 17 15 13 12 10 10 10 10 10 10 7 6 9 10 10 13 17 21 25 26 25 26 26 26 27 27 25 25 26 24 21 21 22 24 24 23 24 23 20 19 20 19 17 17 15 13 11 9 8 6 5 4 5 6 6 7
5 8 7 6 5 6 7 6 7 7 8 9 10 10 8 10 11 12 14 13 13 13 13 13 13 13 14 16 17 18 20 21 21 21 21 20 20 19 19 19 18 18 17 15 13 13 12 11 10 10 10 8 6 6 9 9 11 15 20 26 29 27 28 30 29 28 28 27 26 28 27 24 21 22 25 26 24 24 23 22 20 19 18 17 18 15 12 12 9 7 5 4 4 6 7 7 8
6 7 7 7 7 7 7 7 8 8 9 10 11 10 11 14 14 12 12 12 13 13 13 13 13 14 14 15 16 17 19 20 20 20 19 19 19 20 19 19 19 19 18 16 15 14 14 13 13 13 12 11 9 7 8 9 9 13 17 23 28 29 31 32 32 31 30 29 30 29 28 27 24 20 25 28 25 23 23 24 23 20 19 19 18 15 13 12 10 6 4 4 4 7 9 9 9
8 7 7 6 8 8 7 7 8 8 8 9 10 11 13 13 7 7 11 11 13 13 13 13 13 14 14 15 15 16 18 19 19 19 19 20 20 21 19 18 18 18 18 17 16 14 14 15 15 16 15 14 11 9 8 9 10 11 13 18 24 29 33 34 33 33 32 32 33 33 29 28 27 21 23 28 27 26 24 25 25 23 22 21 18 15 14 12 9 7 4 5 7 10 11 11 10
8 7 8 7 8 9 7 7 9 8 6 7 10 11 12 8 4 9 14 12 12 13 14 13 13 14 14 15 15 15 17 16 17 19 21 20 19 20 19 18 16 16 17 17 16 15 14 15 16 16 16 15 13 10 9 8 10 11 11 14 18 25 33 36 34 34 34 34 34 35 30 28 28 22 23 27 27 28 27 25 25 24 23 22 18 14 14 12 10 7 5 7 10 12 13 12 11
7 6 6 7 8 8 7 7 8 7 5 8 11 10 9 6 7 14 15 13 13 13 14 14 13 14 14 14 14 15 16 15 17 18 19 19 18 19 19 19 17 15 16 17 18 17 17 17 17 17 16 15 14 13 11 9 8 10 10 11 14 19 28 34 36 36 37 37 35 36 33 29 27 23 25 29 25 26 30 26 24 25 23 22 20 17 15 13 10 8 6 7 11 13 14 14 12
8 5 3 5 7 6 6 6 7 7 7 10 10 6 5 8 11 15 15 14 14 13 13 13 13 14 13 14 14 15 15 16 17 17 17 16 16 17 18 19 19 16 16 18 21 20 20 20 20 20 18 15 14 14 13 10 9 9 9 11 12 14 21 28 36 39 37 37 35 35 35 31 28 25 25 29 27 27 30 27 25 25 24 23 22 19 16 13 10 9 6 7 11 13 14 14 13
6 4 3 3 4 5 8 6 7 7 9 10 10 5 4 9 13 14 14 15 14 13 13 13 13 13 13 13 13 14 15 15 16 16 16 15 14 15 16 17 18 18 18 20 22 22 22 22 22 21 20 18 15 14 14 12 10 9 8 11 12 11 16 23 31 36 35 35 35 34 33 32 31 29 26 28 30 29 27 27 27 25 25 24 22 20 16 13 11 10 8 7 11 12 13 13 13
4 4 4 2 2 4 8 6 5 5 8 11 10 5 4 9 13 15 15 14 14 13 13 13 13 13 13 13 12 13 14 14 15 14 13 13 12 12 14 16 18 19 20 22 23 23 23 23 23 22 21 19 17 15 13 12 10 9 9 9 11 11 13 18 24 31 33 32 35 36 32 32 32 32 30 30 32 29 24 28 29 25 26 24 22 21 17 13 12 11 10 8 9 12 13 14 13
4 5 3 2 3 2 6 7 4 2 6 9 8 5 3 9 14 15 15 14 14 13 13 13 13 13 12 12 11 12 13 13 13 12 11 11 11 11 12 15 17 19 21 22 23 24 25 25 24 23 21 19 18 15 12 11 11 10 9 9 9 11 14 16 19 27 35 34 36 38 35 35 35 33 32 32 33 31 27 30 29 25 27 26 23 22 17 14 13 13 12 9 9 11 12 14 13
4 4 2 1 3 2 2 5 4 2 5 7 7 6 4 9 15 16 15 15 14 13 13 13 12 11 11 11 11 11 11 11 10 10 10 9 9 11 12 15 17 19 20 21 23 24 25 24 23 22 20 19 17 15 13 10 10 11 9 9 10 10 12 15 17 23 35 37 35 39 40 38 36 33 32 31 33 32 31 32 28 25 27 27 24 22 18 15 14 14 14 12 10 10 12 13 13
2 3 3 2 3 4 2 2 2 2 6 6 6 7 4 10 15 16 15 14 13 13 13 12 12 11 10 10 10 10 10 9 8 7 7 7 8 10 11 13 15 17 19 21 23 24 24 22 22 21 21 20 18 15 14 11 9 11 11 11 10 10 11 12 16 21 29 33 34 39 43 40 34 31 30 30 32 32 31 29 27 27 27 27 26 23 19 16 15 15 15 15 13 12 13 14 13
3 3 4 4 3 3 1 2 2 3 6 4 4 5 5 10 14 15 16 14 12 12 12 12 12 11 10 10 10 10 8 8 7 6 6 6 7 9 11 12 14 16 19 21 23 24 23 21 21 21 21 21 19 16 15 13 10 9 10 11 9 10 11 11 14 20 26 30 35 39 40 39 33 29 28 29 30 31 32 29 27 31 29 27 27 24 21 18 17 17 15 16 16 14 14 14 14
4 3 4 4 5 3 1 2 2 2 5 2 2 4 5 10 12 14 15 14 12 12 12 12 12 11 10 9 9 9 7 6 5 4 4 5 6 8 10 11 13 15 18 21 23 23 22 21 20 21 21 20 19 18 15 14 12 9 10 11 10 10 7 9 13 21 29 30 34 36 35 35 32 29 28 27 28 30 33 31 30 32 30 28 27 26 23 19 18 17 16 18 17 15 15 15 15
3 4 5 4 4 2 2 2 2 3 5 2 3 5 5 8 11 13 15 13 13 14 14 13 12 11 10 9 9 8 6 5 4 3 2 3 5 7 8 10 13 14 16 19 22 23 21 20 20 20 19 19 19 18 16 14 12 10 10 12 11 9 6 6 10 20 31 30 31 35 33 34 34 29 26 26 26 29 31 32 32 31 30 30 28 26 25 22 21 19 18 19 16 16 17 16 16
3 4 5 4 3 1 2 4 4 3 5 2 4 5 4 7 9 11 14 13 12 14 14 13 13 12 10 10 9 7 6 4 3 1 1 2 4 6 8 10 13 14 14 17 21 22 21 20 21 20 19 18 18 17 17 13 11 10 10 11 10 9 8 5 5 14 29 31 30 35 34 34 38 31 26 26 25 28 31 31 32 31 31 30 28 27 27 26 24 22 20 18 15 16 18 18 17
3 3 5 4 2 4 3 4 4 4 3 3 5 5 3 6 7 9 12 13 12 13 13 13 12 11 11 10 9 8 7 5 3 1 1 2 4 6 8 10 12 13 13 16 19 20 20 20 21 20 18 18 17 17 16 14 11 9 7 8 9 8 9 6 5 9 23 31 31 34 32 31 37 34 30 29 25 26 31 31 30 31 32 30 28 27 27 25 24 24 21 18 17 16 18 20 19
2 2 6 6 4 5 4 1 3 4 3 4 5 5 4 7 8 8 10 11 11 13 14 13 12 10 10 10 9 8 7 6 4 2 1 2 4 5 7 9 11 12 13 15 18 19 19 20 20 19 17 17 17 16 16 15 13 11 9 8 8 6 6 5 5 7 15 26 30 31 30 31 35 32 28 30 27 25 29 32 32 31 32 31 29 28 27 24 22 25 21 18 20 18 18 21 20
2 1 3 7 6 6 5 3 4 5 4 4 5 5 4 7 9 8 9 10 11 13 15 13 12 11 11 10 9 8 7 6 4 2 2 2 3 5 7 9 11 12 13 14 16 18 18 19 19 18 17 16 16 16 15 15 13 13 12 10 9 6 4 5 5 7 10 21 29 29 30 33 33 30 26 29 30 28 28 30 32 32 31 30 29 26 24 23 21 22 21 19 20 18 18 22 21
2 3 2 5 6 6 6 6 6 5 2 4 5 6 3 5 8 9 9 11 12 13 12 10 10 12 12 11 10 8 7 6 4 3 3 2 3 5 7 9 11 12 13 14 15 16 18 19 19 18 17 16 16 16 14 13 12 11 12 11 10 8 4 4 5 6 9 21 28 29 31 32 31 29 27 28 30 31 29 29 29 30 28 26 28 25 21 22 22 21 20 19 20 19 19 22 22
3 5 3 5 6 7 7 6 7 5 2 3 7 6 6 4 5 8 9 10 11 10 9 9 13 14 13 11 10 9 7 6 5 4 3 2 3 5 7 9 11 12 13 15 15 16 17 18 18 17 17 16 15 15 14 13 12 10 11 10 9 9 7 4 3 4 8 16 20 24 28 30 30 29 29 30 30 30 30 30 28 28 25 23 26 27 23 23 22 19 19 18 18 18 19 20 20
4 5 3 4 5 7 6 6 7 4 3 5 6 4 7 5 3 7 7 10 12 12 11 12 15 15 13 12 11 9 8 7 5 4 3 2 3 5 7 9 10 11 13 15 15 16 17 17 17 17 17 16 15 15 14 13 12 10 9 10 9 8 8 6 2 4 8 11 14 19 25 29 30 28 26 28 29 29 29 29 30 28 26 22 22 24 25 24 23 20 21 21 18 17 18 18 18
4 2 4 3 4 5 5 6 6 3 5 7 2 2 6 5 2 5 6 9 10 10 10 13 15 15 14 13 11 10 8 7 6 5 3 3 3 5 6 8 10 12 13 15 15 16 16 16 17 17 16 16 15 15 14 13 12 10 8 9 9 8 8 7 2 3 5 9 14 17 21 26 29 28 26 25 26 27 27 28 30 29 27 23 17 18 25 27 26 25 25 24 21 19 18 17 16
1 4 5 4 4 3 3 4 3 5 6 4 2 3 4 5 1 2 3 3 5 5 6 8 12 13 12 12 12 10 8 7 6 5 4 2 3 4 7 9 10 12 14 15 17 17 16 16 17 17 16 16 14 14 13 12 11 10 8 8 8 8 7 7 5 3 1 5 11 13 15 22 29 34 34 29 25 25 24 25 29 29 29 26 19 16 23 27 27 26 25 24 24 22 19 17 16
4 4 4 4 4 2 4 3 3 6 4 2 3 2 5 6 2 0 2 1 3 4 4 5 9 11 12 12 10 9 7 5 5 4 3 2 3 5 7 9 11 12 14 16 17 17 16 16 17 17 17 17 14 13 13 11 10 9 9 7 6 7 6 5 5 4 2 3 7 11 14 19 25 33 37 32 26 25 23 22 25 28 28 27 21 17 19 21 21 24 25 24 23 22 21 20 18
4 4 3 4 4 2 4 3 3 5 1 4 2 1 4 5 1 1 1 3 5 5 5 5 8 11 12 10 7 6 5 5 5 4 3 3 4 5 7 9 11 13 15 16 16 16 17 16 16 17 17 17 14 12 11 10 10 9 8 7 5 5 5 5 5 3 4 3 6 8 11 15 18 26 33 30 24 23 21 18 20 23 24 25 23 18 18 19 19 22 23 23 23 22 21 21 19
4 4 4 4 4 3 4 4 3 3 1 3 1 2 4 3 1 2 1 2 4 5 6 6 8 11 11 10 7 6 6 6 6 4 3 3 3 5 7 9 11 13 14 15 16 16 17 16 16 17 17 15 13 11 10 9 8 8 7 6 5 4 4 4 4 3 3 4 5 5 8 12 14 18 23 24 22 19 17 15 15 17 19 24 23 19 19 20 20 19 20 21 23 22 21 21 20
3 3 5 5 3 4 5 4 4 4 2 1 2 2 4 2 1 2 2 3 3 5 6 7 9 10 10 9 7 6 6 6 6 4 3 3 3 5 6 8 11 13 14 15 16 16 17 17 16 16 16 15 13 11 10 9 8 8 7 6 5 4 3 3 3 3 3 2 4 5 7 11 14 16 18 22 26 24 19 15 14 14 16 21 21 18 19 21 20 18 19 21 22 23 23 22 22
1 2 5 3 3 3 4 3 4 5 5 1 2 2 3 1 2 3 3 4 5 5 7 9 10 10 9 8 7 7 7 7 6 4 3 2 3 4 6 9 11 12 13 14 15 16 17 17 16 15 15 14 13 11 10 9 8 8 7 7 5 4 4 3 3 4 3 2 2 4 6 8 12 17 18 23 30 29 24 20 18 17 16 17 18 18 18 20 21 19 19 21 21 23 25 25 25
1 3 2 3 3 5 4 1 1 3 5 2 0 3 3 1 4 6 5 5 6 6 8 10 11 11 9 8 7 7 6 6 5 4 3 3 3 4 6 9 11 12 13 13 14 15 16 16 16 16 15 14 12 11 10 9 8 8 7 7 6 5 4 4 5 5 5 4 3 4 6 7 9 14 18 23 30 32 30 27 27 26 21 18 17 16 17 20 21 21 20 21 22 23 24 25 27
4 3 4 2 2 3 3 3 1 3 4 1 1 5 5 2 1 5 7 6 7 7 8 10 11 11 10 9 8 7 5 5 4 4 4 3 3 4 6 9 11 12 13 12 13 15 16 16 16 15 15 14 12 11 10 9 9 8 7 7 7 6 4 5 5 6 6 6 5 4 6 8 9 11 15 20 27 33 34 34 35 34 27 24 20 15 15 18 21 22 23 22 22 22 23 23 25
3 2 2 2 3 1 1 2 3 4 4 1 0 4 4 2 1 3 6 7 7 8 9 9 10 11 10 9 9 8 6 5 5 5 4 3 3 4 6 9 11 12 12 12 13 14 15 15 16 15 15 14 12 11 10 9 8 8 7 7 7 6 5 5 5 6 7 7 7 6 6 8 10 11 13 16 20 26 30 33 38 39 32 27 24 18 15 17 19 21 23 23 22 23 23 22 23
2 3 2 1 3 3 2 2 3 4 5 3 2 3 1 3 3 2 3 6 8 8 8 8 9 10 9 8 7 6 6 6 5 5 4 3 3 4 6 8 11 12 12 12 13 14 14 15 16 16 15 13 12 11 9 8 7 7 7 7 7 7 6 5 5 6 6 7 8 8 8 9 11 11 12 13 15 19 23 25 33 40 37 29 26 23 19 17 17 19 21 22 23 24 24 23 23
1 2 0 1 0 2 2 1 1 3 5 4 3 4 2 5 4 4 2 2 6 7 7 8 9 10 8 6 6 4 4 4 4 4 4 3 3 4 6 9 10 12 12 12 13 14 15 16 17 16 15 14 12 11 10 9 8 7 8 8 7 7 7 6 5 6 6 6 7 8 9 10 11 13 14 14 13 14 18 20 24 32 36 32 28 25 21 18 17 18 20 21 22 23 23 23 23
4 3 3 3 2 3 4 1 1 1 4 4 4 5 3 5 4 4 3 2 3 6 7 7 8 8 7 6 5 4 3 4 4 4 4 3 3 5 7 9 11 12 13 13 14 15 15 16 17 16 15 14 12 11 10 9 9 8 9 8 7 6 6 6 5 5 5 5 6 6 8 9 10 12 14 16 14 12 15 18 18 22 28 31 30 27 25 23 21 20 20 20 22 23 22 22 23
Wind_Direction
181 185 177 172 160 158 179 196 205 190 236 238 211 188 123 78 12 185 188 212 233 47 356 323 326 283 258 320 107 80 37 24 22 352 122 104 131 129 140 148 151 159 159 163 166 159 158 162 161 163 161 161 160 156 160 162 163 165 168 168 168 170 170 170 168 168 165 163 161 158 160 165 168 167 164 159 155 155 156 156 157 156 149 142 138 132 125 121 117 114 112 110 106 104 105 106 107
182 174 171 164 158 179 181 199 235 171 213 232 187 154 97 114 190 210 262 334 330 353 357 327 85 103 155 77 113 100 55 44 46 63 87 100 117 117 138 143 150 157 158 165 165 161 164 165 161 163 163 162 161 157 157 160 162 164 165 166 167 170 170 169 167 167 169 170 170 169 168 171 172 171 166 158 157 159 159 155 155 152 146 141 134 128 124 122 118 115 114 112 106 102 101 101 101
173 161 162 162 163 205 185 195 248 191 209 218 147 111 103 165 175 82 347 340 344 18 129 139 116 92 153 108 78 84 70 54 50 70 91 94 115 132 147 144 150 155 159 165 165 165 167 169 162 158 162 163 160 158 157 159 163 163 163 165 165 168 169 168 170 173 177 179 179 177 173 174 174 172 165 159 162 163 160 153 149 146 144 139 131 127 126 122 118 116 117 114 108 101 97 96 96
166 157 156 171 179 205 202 199 253 234 217 200 123 118 135 165 101 29 357 1 42 133 138 137 119 40 94 104 94 92 73 51 43 46 75 67 125 150 155 156 155 157 166 165 162 166 170 167 158 154 159 161 158 157 156 159 163 166 166 161 162 165 169 171 175 180 186 188 185 180 174 173 170 168 165 164 165 162 156 149 145 143 141 136 131 128 125 120 117 116 117 113 108 102 95 93 94
157 158 157 188 207 192 215 211 247 242 230 16 116 115 125 116 61 14 24 79 133 139 137 136 118 85 86 77 94 91 28 30 35 25 31 26 59 136 163 162 150 157 159 152 155 151 157 156 147 147 152 157 159 160 158 159 163 168 167 161 161 161 169 179 183 186 190 190 185 179 170 167 165 165 166 164 162 158 152 146 144 142 138 134 131 128 123 119 118 118 115 111 107 102 96 93 92
149 158 160 202 244 183 228 209 209 217 54 356 47 90 107 101 49 46 99 123 126 128 134 129 124 119 97 72 73 67 30 25 22 20 25 29 49 95 147 146 134 153 145 125 130 102 101 136 138 136 138 141 144 150 152 158 168 173 173 163 150 148 167 184 190 192 191 187 181 175 166 165 165 162 160 160 160 157 150 145 143 140 138 134 130 126 123 120 119 119 115 110 106 101 96 93 90
156 167 170 190 183 200 230 199 196 167 71 352 349 55 59 59 62 145 140 132 122 123 121 118 123 120 106 99 80 62 50 43 30 31 33 34 43 50 74 108 84 85 96 61 68 65 57 97 112 110 113 109 107 118 121 116 142 164 173 163 140 129 150 183 195 194 190 184 176 171 168 164 159 157 158 160 158 152 147 145 143 141 137 133 129 127 125 121 120 120 117 112 107 101 96 91 89
165 175 185 200 170 202 227 163 133 53 77 30 0 21 354 28 147 161 150 137 126 124 123 128 124 102 87 111 89 61 51 47 50 48 40 37 40 43 38 40 43 45 53 44 60 78 64 81 80 79 79 79 76 76 83 58 59 59 64 130 137 128 152 184 203 200 189 180 177 172 165 159 154 158 162 162 154 146 145 145 144 141 136 131 129 128 126 123 121 120 119 117 111 103 96 92 89
177 189 195 219 184 184 197 138 114 70 78 74 55 43 18 98 165 159 145 130 124 120 121 140 122 104 93 94 91 67 42 42 55 56 48 42 43 54 55 50 49 48 60 69 94 126 124 119 110 94 82 83 69 48 37 7 360 350 351 18 10 280 261 232 228 213 193 184 179 168 159 158 158 163 166 165 154 146 146 145 143 139 134 131 130 129 127 125 121 119 119 120 115 107 99 93 89
185 204 207 221 186 178 171 139 120 104 86 77 69 61 75 134 159 150 138 128 126 114 96 107 109 113 118 99 92 63 36 40 58 58 50 46 47 53 62 66 68 68 75 90 96 94 93 88 82 82 76 80 65 43 31 2 340 330 329 342 343 278 265 252 244 214 191 184 174 165 162 163 165 169 170 169 157 149 149 146 142 136 134 132 130 130 129 125 120 117 119 121 120 112 103 95 89
185 190 222 213 188 180 150 130 115 112 101 96 84 73 93 136 145 135 130 125 120 109 89 101 112 115 118 98 89 65 42 48 62 58 50 51 55 53 61 70 72 73 73 81 81 78 84 78 79 87 84 68 19 10 4 351 341 327 321 323 340 266 250 241 235 211 186 178 171 169 169 169 171 175 174 172 158 151 152 146 141 136 135 133 131 132 129 124 118 117 119 121 121 116 109 99 89
205 164 209 211 173 144 128 122 113 113 107 97 86 79 87 129 130 125 128 126 123 109 69 59 120 122 115 99 92 71 46 46 59 60 57 54 57 57 57 64 70 67 62 69 70 72 92 99 92 83 97 205 272 283 335 325 330 326 313 311 325 274 239 231 225 213 192 179 174 175 176 175 177 180 174 169 158 154 153 146 141 139 137 135 133 133 128 122 115 114 116 118 120 117 112 103 93
225 170 213 185 116 131 126 121 119 116 101 82 80 77 78 106 96 104 124 115 109 104 61 34 108 121 102 104 93 64 44 40 50 58 58 46 52 57 55 61 70 72 67 68 70 73 89 113 107 74 110 207 249 221 272 287 307 310 302 309 316 299 239 232 224 215 204 190 181 177 176 173 175 177 169 161 156 155 153 145 141 141 140 138 135 133 127 121 114 110 109 111 115 114 110 106 97
214 195 233 139 133 143 131 135 134 119 96 84 84 82 80 80 58 75 113 103 76 58 58 31 61 117 106 121 88 48 38 39 44 48 46 44 50 54 57 61 62 68 72 66 64 67 76 98 173 199 166 181 232 230 226 261 295 292 288 307 313 305 252 232 230 220 211 202 185 173 171 170 171 168 162 155 154 157 153 144 142 143 144 141 136 133 128 123 117 111 108 108 110 109 107 104 98
179 189 196 141 150 140 132 131 124 111 99 94 90 94 89 69 50 70 57 86 79 38 73 40 34 111 123 137 84 41 37 47 52 51 48 48 49 53 57 59 54 55 60 56 55 59 67 78 195 211 183 164 212 225 202 220 282 272 274 295 302 301 268 222 225 223 217 210 186 171 171 171 171 166 161 156 156 158 152 145 146 148 147 142 136 135 131 125 119 114 109 108 109 107 105 102 98
183 199 178 148 148 135 132 128 126 113 104 107 98 104 98 69 58 73 46 80 94 52 65 51 37 68 74 76 70 47 47 52 59 59 53 52 53 57 58 57 53 45 40 31 20 24 39 54 50 203 178 176 191 197 193 202 234 243 250 275 281 284 274 236 216 216 215 210 189 176 174 171 171 167 163 159 160 158 152 153 155 152 148 141 138 137 133 125 118 114 110 107 108 108 105 101 97
200 216 180 146 140 130 138 145 136 116 113 117 116 124 111 89 72 80 76 87 93 71 66 63 61 68 69 70 64 56 58 58 60 55 48 51 53 56 57 56 54 47 42 27 5 353 353 3 342 319 184 183 192 196 199 207 221 228 222 243 256 259 266 248 213 208 212 205 190 181 174 171 176 171 166 165 164 160 156 159 158 153 148 143 141 139 132 124 119 114 111 108 108 108 105 98 94
213 204 158 140 127 115 113 104 101 116 119 111 108 113 111 110 101 104 105 93 94 88 80 80 78 73 69 68 66 63 61 61 56 47 42 44 47 50 52 50 51 51 52 43 18 354 340 336 318 306 301 251 208 208 209 213 221 227 221 217 231 236 246 238 211 203 212 209 193 183 177 176 180 175 171 169 169 167 162 159 156 152 150 147 143 139 132 126 122 120 115 111 111 107 102 96 90
225 175 136 113 101 97 89 91 94 108 111 107 105 105 106 107 113 139 141 117 116 104 98 99 88 78 71 65 68 67 62 59 48 42 41 40 44 50 53 52 53 55 58 54 25 355 340 328 311 300 296 291 254 226 218 217 218 225 233 229 222 222 225 221 209 199 205 212 198 185 181 179 179 179 177 173 174 173 165 160 155 153 153 150 145 139 135 129 125 123 119 116 115 106 102 100 93
225 215 132 105 104 105 93 91 88 92 110 117 113 107 106 110 131 152 136 122 123 105 100 106 91 78 70 64 64 66 61 59 52 48 48 46 47 49 53 52 49 48 48 44 21 354 338 323 307 298 293 286 272 247 230 225 224 228 237 242 229 217 214 211 205 197 199 208 203 191 185 182 179 181 184 180 178 174 169 166 159 157 157 152 147 142 139 134 129 126 123 123 117 109 111 116 113
197 249 109 115 124 114 97 93 93 96 112 115 123 122 112 116 129 143 146 134 115 93 80 83 82 73 69 63 61 65 66 64 60 57 55 52 50 49 48 44 40 37 34 29 19 5 351 337 317 306 299 287 271 253 239 229 231 235 237 239 230 216 214 213 208 200 198 205 205 197 190 185 180 181 186 184 180 175 171 172 165 161 160 155 150 145 146 140 132 129 123 119 118 120 130 132 130
129 80 95 113 124 111 103 101 99 108 117 120 135 129 117 119 104 110 156 134 100 92 80 75 74 71 70 67 66 71 72 68 63 58 54 51 48 47 44 41 38 34 26 15 5 5 6 356 339 330 321 301 282 263 246 229 226 234 237 235 225 217 216 212 209 204 200 205 206 201 197 191 183 181 186 183 182 179 174 173 169 165 163 159 153 153 160 149 141 151 141 131 142 150 145 135 135
145 108 111 110 81 95 107 105 104 130 136 126 125 120 131 130 96 72 78 85 93 93 88 83 78 77 80 81 77 74 70 65 60 56 52 49 47 46 44 42 41 36 28 18 3 0 8 4 353 346 344 329 300 280 264 240 223 220 227 232 226 219 215 209 209 211 205 205 208 204 201 195 185 183 184 183 185 182 177 176 174 171 168 164 160 161 166 156 154 163 159 161 163 160 151 134 132
148 124 127 120 80 81 101 110 116 128 118 113 122 132 145 137 108 86 83 88 98 97 96 94 89 87 84 81 76 72 68 63 60 58 54 52 49 49 48 46 44 40 35 30 18 4 3 6 2 356 358 351 319 298 286 266 239 222 218 224 225 219 216 212 211 215 211 205 207 206 205 200 188 186 185 184 189 187 181 180 180 175 168 168 166 164 166 158 158 164 159 168 165 163 164 144 136
115 121 127 129 102 94 109 123 126 119 115 121 131 131 127 121 113 101 96 99 104 104 104 102 98 94 86 79 75 72 70 66 63 61 58 55 51 50 50 47 44 41 38 36 28 14 4 5 4 2 4 356 335 313 297 281 260 241 225 222 221 218 216 217 215 215 212 206 206 206 208 204 191 188 188 186 190 190 185 183 180 174 171 173 169 165 170 161 155 163 155 162 172 167 167 155 149
105 124 132 134 116 114 128 135 131 127 131 135 131 124 119 118 113 103 104 113 114 114 110 106 103 96 89 83 77 72 70 67 64 62 60 55 50 48 47 46 43 40 37 34 30 19 8 7 8 5 5 0 349 334 306 287 271 252 239 230 224 218 215 218 219 217 213 208 206 206 204 202 196 192 191 189 190 190 190 187 179 175 176 177 172 169 171 163 156 159 149 159 169 160 161 157 150
118 128 126 130 122 124 140 140 135 135 141 151 141 129 131 136 141 122 121 127 124 122 116 112 108 99 93 87 79 73 68 65 63 62 61 56 50 48 47 46 42 39 37 34 29 19 11 11 13 10 8 5 358 351 331 299 280 263 248 239 231 223 218 216 217 216 214 212 208 206 202 201 203 200 194 192 191 194 196 191 185 182 180 177 176 174 170 163 157 156 154 157 155 153 154 151 147
133 140 132 131 131 128 140 148 148 150 150 167 153 135 145 164 184 138 137 141 135 130 123 118 110 101 95 87 81 75 70 66 64 62 60 57 53 50 50 50 44 37 35 34 29 20 14 9 10 10 7 7 5 1 349 322 293 278 264 248 239 230 223 217 215 214 214 217 213 207 204 203 207 204 197 194 192 197 199 194 191 189 185 181 178 178 174 166 156 154 156 150 147 148 147 145 146
151 174 159 144 153 133 131 151 161 172 158 165 163 149 157 158 129 131 141 145 139 135 127 121 112 103 97 91 84 78 73 69 65 62 61 60 59 56 54 55 52 43 36 35 33 27 21 13 10 9 3 3 5 7 0 345 312 283 271 262 252 240 230 221 218 218 215 217 216 212 208 205 207 205 198 195 190 195 198 195 194 193 190 187 185 183 180 172 160 154 158 157 147 146 147 145 147
163 205 223 169 183 141 122 150 170 178 152 169 190 183 151 128 127 138 145 147 146 142 131 124 115 106 100 93 88 81 75 72 68 65 65 64 62 60 58 58 57 53 44 38 36 31 24 18 13 10 5 1 358 6 8 357 334 295 269 263 259 252 241 227 221 218 214 214 217 216 211 205 208 209 201 196 193 195 197 196 195 194 193 193 191 190 185 176 167 161 161 165 151 146 149 148 149
173 194 222 211 222 133 120 147 182 183 157 182 220 230 152 136 143 149 152 155 154 146 136 128 118 111 104 96 90 85 79 75 73 69 67 67 66 62 58 56 53 49 43 37 33 27 23 17 12 8 4 3 357 359 7 5 348 317 286 266 260 257 244 232 225 219 211 211 215 214 208 204 208 210 205 199 197 195 195 198 196 194 196 195 195 194 189 181 176 170 164 165 156 150 152 152 149
183 201 206 209 258 130 121 143 194 203 167 192 227 244 166 149 153 156 159 163 159 149 139 130 123 117 110 104 96 90 85 79 76 72 68 66 64 61 56 51 46 42 37 32 27 21 17 11 6 3 359 2 360 356 0 5 356 330 307 282 267 266 253 240 233 223 213 208 213 213 205 204 207 208 208 202 198 195 196 201 197 196 199 195 196 197 191 186 184 179 175 169 160 157 156 157 152
187 243 239 175 239 174 133 145 162 212 181 201 229 246 188 155 160 162 165 169 163 153 142 134 128 122 116 111 104 98 92 85 78 71 68 65 61 59 54 47 41 36 31 25 21 17 12 6 2 358 355 357 360 358 356 355 354 342 320 298 280 275 270 257 243 226 215 209 212 213 206 204 205 207 209 204 198 196 200 200 195 199 202 196 199 199 192 190 191 189 186 179 164 166 165 160 155
182 245 258 198 263 272 172 149 134 208 217 225 234 245 234 160 162 167 169 172 167 157 147 140 132 125 120 115 108 102 96 89 81 72 68 63 58 56 49 43 37 31 27 22 17 14 10 7 2 357 353 353 358 1 359 353 346 343 331 312 301 288 277 265 252 228 216 212 212 211 206 202 203 205 209 206 199 198 202 199 195 201 201 197 201 199 192 191 194 194 193 187 172 168 169 163 158
220 244 257 221 236 249 255 144 122 238 244 246 237 239 223 160 162 170 171 174 172 161 152 143 136 131 127 120 111 104 100 93 85 78 72 63 54 51 44 38 32 26 23 18 15 14 13 10 6 1 356 355 358 0 1 359 343 340 339 326 311 295 284 267 252 228 214 213 213 212 208 202 201 205 209 208 201 200 201 197 199 203 198 198 201 198 195 193 195 196 196 195 186 177 177 171 165
304 292 288 277 259 247 279 66 85 276 263 255 256 252 207 168 168 171 170 175 175 161 153 147 142 138 134 126 115 108 105 99 94 85 75 64 51 44 40 34 28 22 17 17 16 14 14 13 9 5 3 1 0 360 359 360 351 339 338 330 314 298 283 261 245 221 209 211 212 213 209 202 201 206 208 209 205 205 201 194 198 202 198 199 200 198 197 195 199 199 198 201 196 190 187 178 172
294 277 271 276 283 282 97 118 130 266 271 266 277 263 204 177 172 170 171 174 172 163 160 157 152 148 143 134 122 116 111 106 102 90 76 60 45 37 34 29 23 18 15 16 16 15 14 12 9 5 4 4 1 359 358 359 358 346 338 334 325 323 298 258 243 215 205 207 209 209 206 200 202 206 206 207 206 209 207 200 199 200 199 200 200 201 199 196 203 199 197 203 198 193 191 184 182
275 271 273 265 263 275 97 148 162 236 263 255 243 242 188 173 172 170 173 176 176 174 173 168 159 153 149 142 131 125 120 116 112 96 77 49 39 32 28 24 19 16 12 13 14 13 12 9 7 4 3 4 1 359 357 355 358 355 342 333 326 330 328 279 248 216 204 204 206 206 202 199 200 203 204 204 205 209 208 205 204 201 200 201 201 203 200 200 207 203 201 202 194 191 194 192 191
263 274 281 274 279 305 156 174 176 217 254 250 232 235 175 164 173 176 181 184 184 182 181 174 164 159 157 150 140 136 134 130 140 137 68 35 30 25 24 19 15 14 8 9 10 10 9 5 4 2 1 3 0 356 356 352 355 359 343 330 324 316 320 305 254 221 204 200 204 206 204 202 201 204 206 204 205 208 207 207 206 202 202 202 201 203 204 205 209 208 206 199 188 190 197 200 198
262 297 284 284 329 301 246 172 168 203 251 258 232 232 175 165 178 184 190 192 186 184 184 178 171 170 167 161 156 153 152 157 176 186 349 7 14 17 19 16 14 11 4 4 6 6 4 1 359 360 359 1 360 354 354 355 352 356 349 333 329 315 315 307 269 237 206 201 202 203 205 202 202 208 211 207 207 208 209 209 208 205 203 201 199 201 203 202 204 208 205 197 192 191 196 203 202
244 293 294 307 326 294 282 164 178 198 221 239 229 236 209 187 190 186 187 191 185 182 183 180 180 177 169 165 166 166 163 172 186 197 280 339 1 11 13 13 11 5 360 0 3 2 359 357 356 357 358 358 359 355 353 357 352 353 1 351 344 331 319 312 261 235 211 208 203 200 204 201 199 206 209 208 210 210 210 210 209 207 204 202 200 200 200 197 198 205 203 197 198 195 196 203 203
266 150 321 322 315 292 274 240 230 235 233 208 216 259 232 186 197 196 185 185 189 192 188 186 187 180 175 176 177 178 178 180 186 204 258 315 347 2 6 7 7 2 357 355 356 356 355 355 355 355 357 356 357 358 356 357 353 352 1 359 357 351 322 326 272 229 198 194 196 197 202 200 198 202 205 206 209 211 212 211 211 208 205 204 202 200 200 197 196 201 202 200 202 199 201 205 204
301 76 19 307 290 279 264 244 241 262 284 171 206 267 263 183 197 198 193 195 198 199 189 192 206 196 186 186 184 186 186 183 188 212 245 295 333 355 1 1 3 358 353 352 350 351 351 352 354 354 355 354 355 359 359 359 355 351 357 357 357 358 332 311 288 255 189 178 186 193 195 196 198 201 206 207 210 214 216 215 214 210 207 204 201 198 195 195 196 199 202 203 203 202 206 209 208
2 50 353 283 270 266 262 252 247 270 335 184 212 258 277 252 197 179 196 209 200 191 177 189 216 213 195 188 187 187 187 186 193 214 236 283 328 351 357 358 0 353 350 352 348 346 347 349 353 353 353 352 352 357 360 360 358 351 353 355 353 357 351 314 277 259 207 180 176 185 189 194 201 205 207 209 211 215 219 221 219 215 211 207 204 201 197 196 195 195 200 201 202 205 207 209 210
32 32 306 280 276 271 266 258 255 272 291 246 215 221 264 271 165 164 202 219 208 197 189 198 215 217 201 190 188 188 186 188 199 215 234 275 321 346 353 356 357 352 349 350 347 344 344 347 350 350 352 350 348 352 357 357 358 355 352 353 350 351 354 343 269 232 228 198 172 175 185 192 198 200 201 205 208 212 219 222 221 218 213 211 209 203 200 197 192 194 199 198 198 202 207 209 210
35 341 255 238 249 257 254 256 263 257 263 268 221 157 270 279 156 177 208 226 227 209 198 206 215 215 201 189 185 184 185 188 202 216 232 271 314 341 350 355 354 351 348 346 346 345 345 346 347 348 349 347 345 347 351 352 355 357 352 351 353 348 350 354 324 236 230 212 193 175 175 187 194 195 199 207 212 215 218 218 219 218 212 213 217 204 200 199 196 198 202 202 203 204 206 209 210
323 238 240 226 226 240 245 254 279 262 249 259 109 118 270 279 241 207 196 232 255 222 196 196 200 200 190 185 184 181 183 188 201 217 229 269 320 339 346 351 349 346 346 346 348 348 348 346 344 346 346 342 343 344 345 348 348 350 352 349 351 350 349 357 339 283 211 198 206 188 174 186 194 197 201 209 216 220 223 218 217 217 212 213 220 208 201 201 202 204 205 205 208 207 208 211 213
234 245 269 260 234 219 238 221 222 257 257 87 87 143 242 258 269 216 121 129 248 228 215 190 184 186 181 180 181 178 183 192 205 225 239 286 322 334 342 346 344 343 346 347 349 349 347 345 342 343 343 339 339 341 340 341 343 342 346 347 346 350 346 352 350 295 252 148 188 200 190 186 190 196 202 210 216 222 225 222 218 218 214 216 222 215 203 198 201 208 208 207 210 210 211 214 216
252 271 287 276 261 241 255 248 232 261 299 76 42 294 250 261 303 61 159 203 212 217 232 212 187 181 170 165 169 175 188 206 219 238 260 294 318 331 339 342 341 343 346 347 348 348 346 345 343 342 341 337 333 338 339 337 339 338 339 342 337 346 344 338 354 328 268 209 181 196 199 190 186 193 202 209 212 213 219 222 219 218 218 223 225 217 207 202 203 210 213 212 215 215 215 218 219
321 322 314 298 297 298 277 267 273 289 53 88 18 292 265 260 88 51 343 202 191 199 217 210 181 171 164 163 176 189 200 216 228 241 263 291 316 331 336 339 341 343 346 347 347 346 346 344 344 343 341 338 333 336 341 336 335 335 335 340 332 332 342 328 331 341 308 245 212 204 208 207 197 191 197 205 207 207 212 215 214 217 222 228 228 219 213 214 213 216 220 220 221 223 222 222 224
344 342 302 296 317 314 297 293 308 317 333 115 159 252 297 326 89 69 62 123 159 185 190 178 166 165 166 171 183 200 213 221 230 241 255 280 313 329 334 337 342 344 345 346 346 344 345 343 340 340 340 341 341 338 339 336 333 332 332 336 333 318 318 317 309 313 324 284 239 216 207 212 211 204 204 210 213 216 220 219 219 224 227 231 232 225 217 219 219 221 226 228 227 229 231 230 231
22 304 276 301 351 318 296 318 345 327 304 269 176 247 323 359 160 139 120 142 153 168 174 170 168 167 171 181 193 212 223 224 229 240 248 263 310 328 337 341 344 345 343 344 345 344 344 342 338 338 338 339 340 337 334 332 330 329 328 328 330 319 300 294 285 280 286 298 278 230 216 208 210 215 216 214 214 219 224 228 235 244 243 240 238 229 223 224 226 225 230 233 234 233 235 236 238
296 277 308 21 352 303 282 277 107 264 274 287 314 293 296 185 166 154 160 169 159 166 176 175 174 174 186 204 211 218 226 229 232 239 246 256 308 325 337 345 344 344 343 343 345 344 342 341 338 338 338 336 337 337 332 329 326 322 322 321 322 317 298 282 270 268 270 269 273 251 236 221 210 218 221 216 214 217 222 227 238 247 251 252 249 234 226 229 231 231 232 234 235 235 235 237 240
310 321 22 28 257 262 271 276 246 249 271 293 2 305 300 294 165 160 180 191 178 180 184 184 186 190 203 214 212 217 229 236 235 238 248 258 301 326 338 344 343 343 343 342 345 345 342 341 340 338 338 338 336 335 330 326 322 317 316 315 314 312 295 279 265 259 262 260 259 259 250 237 222 216 219 219 217 220 224 228 235 242 248 254 255 243 228 230 233 234 233 232 233 234 235 236 238
353 32 39 291 268 260 225 272 305 297 298 313 327 300 294 307 35 175 195 197 190 190 193 197 199 200 207 209 203 211 221 225 231 237 244 258 295 329 339 341 342 344 344 343 343 344 343 342 343 340 337 338 336 333 329 325 320 315 315 314 313 313 298 286 275 259 256 256 254 252 250 247 237 225 220 220 220 223 228 230 231 235 243 249 252 249 237 231 233 234 234 233 233 234 236 236 236
143 166 162 304 324 328 324 316 319 307 302 317 323 295 307 59 23 329 215 195 194 198 202 205 204 202 207 208 206 210 213 220 236 238 235 254 294 327 337 339 344 345 343 345 344 343 342 342 344 341 336 337 337 334 332 331 326 317 315 317 315 310 301 292 285 272 259 254 253 251 247 245 241 236 230 225 223 224 227 227 226 229 238 245 246 245 241 233 231 234 235 235 235 237 239 236 235
233 221 274 17 21 289 287 268 326 312 304 323 327 305 22 61 23 348 344 214 203 203 209 208 204 204 205 205 209 214 214 222 230 229 235 259 296 323 335 339 344 344 345 346 344 343 342 341 343 342 338 336 335 334 334 333 331 323 318 319 316 312 308 299 288 280 271 262 260 255 250 246 239 237 235 231 231 233 231 228 222 225 232 239 240 239 238 235 232 232 234 235 236 239 241 237 234
321 326 335 346 349 295 284 246 105 310 303 330 321 305 15 71 43 5 357 305 238 219 220 214 205 204 206 207 214 223 230 231 224 224 241 260 294 319 332 340 343 344 345 346 345 343 342 340 341 340 337 335 333 331 331 329 328 327 324 323 323 323 316 309 299 289 280 270 265 259 253 249 242 239 238 234 232 237 239 236 230 225 228 234 237 237 236 236 236 237 238 239 238 238 241 238 236